Wind_Speed
11 12 11 11 11 11 11 11 11 11 11 11 12 13 14 14 14 14 14 14 13 13 13 13 13 12 12 11 10 10 9 9 9 9 9 9 9 10 10 10 10 11 11
11 11 10 10 11 11 11 11 11 11 12 12 13 14 14 14 14 14 14 14 14 14 14 13 13 13 13 12 12 11 11 11 11 11 11 11 12 12 12 12 12 13 13
11 10 10 10 10 10 11 11 11 11 11 11 12 13 13 13 12 12 12 13 13 13 13 13 13 13 13 12 12 12 13 13 13 12 12 12 13 13 13 14 14 14 15
9 9 9 9 9 9 9 9 9 8 9 9 10 11 11 11 10 10 11 11 12 12 13 13 13 13 13 13 13 13 13 13 13 13 12 12 13 13 13 14 14 14 14
8 8 8 8 8 8 7 7 7 7 7 8 8 9 9 9 9 10 10 10 11 12 12 13 13 13 13 13 13 13 13 13 13 13 12 12 13 13 13 13 13 13 13
7 7 7 7 6 5 5 5 5 5 5 6 6 7 7 8 8 8 9 10 10 11 12 12 13 13 14 14 14 14 14 14 14 14 14 13 13 13 13 13 13 13 13
7 7 7 6 5 4 3 3 3 3 3 4 5 6 6 7 7 8 8 9 10 11 12 13 14 15 15 15 15 15 15 15 15 16 15 13 14 14 14 14 13 13 13
7 7 7 6 5 4 3 2 1 2 2 3 4 5 6 6 7 7 8 9 10 11 13 14 15 16 16 17 16 16 17 17 17 18 17 16 16 15 15 15 14 14 14
6 6 6 5 4 3 2 1 0 1 2 3 4 5 6 7 7 7 8 9 10 12 13 15 16 16 17 17 17 17 17 17 17 18 16 15 16 15 16 15 15 15 15
6 5 5 4 3 2 1 1 1 2 3 4 5 6 7 7 8 9 9 10 11 12 14 15 16 16 16 16 16 17 17 18 18 17 14 15 16 16 16 16 16 16 16
5 4 3 2 1 1 2 3 4 4 5 6 6 7 8 9 10 10 11 12 12 13 15 16 17 17 17 17 17 17 17 18 19 16 14 16 16 16 16 16 16 16 16
4 3 1 1 2 4 5 5 6 7 8 8 9 9 10 11 12 12 13 14 15 16 17 18 18 18 18 18 18 18 19 21 21 17 16 18 17 17 17 17 17 18 18
5 4 4 5 6 7 8 9 10 10 11 11 12 12 13 13 14 15 17 18 19 19 19 20 21 21 21 20 20 21 21 24 23 19 18 19 19 19 19 19 19 19 20
7 7 8 8 9 10 12 12 14 14 14 14 14 15 16 17 18 19 21 22 23 23 23 24 24 24 24 23 24 24 24 26 25 22 21 21 21 21 22 22 22 22 23
9 9 10 11 13 14 15 16 17 16 16 16 17 18 19 21 23 24 26 27 27 27 27 28 29 29 29 29 28 28 27 28 29 26 24 25 25 25 25 25 25 26 26
11 11 12 14 15 17 18 19 20 20 20 20 20 21 23 25 27 28 29 30 31 31 32 33 33 33 33 32 32 31 30 31 31 30 28 29 29 29 28 28 29 29 30
13 13 15 16 17 19 21 22 22 23 23 23 23 24 26 28 29 31 31 32 33 32 34 35 35 35 35 35 35 34 33 34 34 33 32 32 32 32 31 32 32 32 33
15 15 16 18 18 21 23 24 25 25 25 25 25 26 27 28 30 31 31 32 33 32 32 33 33 33 34 35 35 35 33 34 34 34 35 35 35 34 34 35 36 36 36
17 16 18 20 20 22 24 25 26 26 27 27 27 28 29 30 31 32 33 33 33 33 31 30 30 29 29 31 33 34 34 34 33 34 35 37 37 37 36 36 36 37 37
18 18 20 22 23 24 26 27 28 28 28 29 29 29 31 32 33 34 34 34 34 32 30 29 29 28 26 26 28 30 31 32 32 34 34 36 38 37 37 36 35 36 38
21 21 22 25 27 27 28 29 31 31 31 31 31 32 34 35 35 35 35 35 34 31 30 29 28 27 25 24 25 25 26 28 30 32 33 34 34 34 35 36 37 37 39
26 24 26 28 29 30 31 32 33 34 34 33 34 35 37 38 39 37 37 37 34 31 29 28 28 27 26 26 25 25 25 26 27 29 32 33 34 35 36 38 40 42 45
31 29 30 31 32 33 33 34 35 36 36 37 37 38 40 41 41 41 40 38 35 33 31 29 29 29 28 28 28 28 29 29 30 32 34 35 37 39 41 43 46 48 50
34 34 34 34 35 35 35 36 37 38 39 40 40 41 43 44 43 42 42 39 36 34 32 31 31 31 31 31 32 33 34 35 35 35 37 39 41 44 46 48 51 54 56
37 37 37 37 36 36 37 38 39 40 41 42 42 44 45 45 44 43 42 41 38 36 35 34 34 34 34 35 36 37 39 40 41 42 43 45 48 51 53 55 57 59 61
38 38 38 37 37 37 38 39 40 42 43 43 44 45 45 45 45 45 44 41 40 39 38 37 37 37 38 39 40 41 43 44 46 48 49 51 53 56 59 61 63 65 67
Wind_Direction
251 244 237 231 228 226 226 227 230 232 236 240 246 251 255 257 257 255 252 249 247 247 246 247 250 251 253 257 260 263 263 260 260 260 260 261 262 263 263 263 264 266 268
250 243 237 232 230 230 231 231 232 235 239 245 250 253 254 255 255 254 253 251 250 250 250 251 253 254 257 260 263 264 263 263 263 263 262 262 262 262 262 263 264 266 268
246 242 237 232 230 231 232 232 233 236 241 246 250 252 253 253 253 253 253 253 253 254 255 256 257 258 260 263 264 265 266 266 267 267 267 265 263 262 261 263 265 266 268
237 234 233 230 229 230 232 233 235 238 243 247 249 249 250 251 252 253 254 255 257 259 260 262 262 263 264 265 265 267 267 268 270 269 266 262 262 262 262 263 264 265 267
224 225 227 225 225 228 232 234 237 239 244 249 251 251 253 255 257 259 260 261 262 264 266 268 268 269 269 270 270 269 269 269 270 270 266 261 261 263 264 263 264 265 267
208 209 210 211 214 218 220 226 233 240 250 258 261 262 263 264 266 266 267 267 268 270 272 273 273 273 273 274 274 273 272 272 272 270 270 266 263 266 266 265 264 265 266
187 188 189 191 192 191 199 216 233 255 269 277 279 279 278 277 277 276 276 276 277 277 277 277 277 276 276 276 276 275 275 274 273 272 270 268 270 271 268 265 264 263 264
176 177 177 176 174 173 178 191 221 270 290 294 295 294 291 288 286 285 284 283 282 280 279 279 278 277 276 276 276 275 275 274 273 272 271 268 267 267 266 264 262 261 261
175 175 172 170 165 162 160 155 173 303 305 307 308 308 306 303 299 296 292 288 285 283 282 281 279 278 277 277 277 276 275 274 271 268 269 267 266 264 262 260 259 257 257
175 176 175 176 161 143 116 34 357 344 338 331 326 323 321 318 315 310 304 299 295 292 290 288 286 284 282 280 278 276 274 272 269 268 270 266 264 262 260 259 257 257 256
174 175 175 168 145 51 14 4 355 349 346 342 337 333 330 327 324 320 315 311 307 304 300 296 294 291 286 283 280 277 273 270 268 267 266 259 259 260 259 258 258 258 258
199 205 230 294 324 335 342 348 348 342 339 337 334 332 331 329 327 325 321 317 312 309 305 301 297 292 287 284 282 278 274 270 269 270 264 262 262 263 261 259 260 261 262
252 265 279 301 315 324 330 333 335 335 333 333 331 331 331 330 328 327 324 320 314 310 305 301 297 291 287 284 281 278 275 272 274 275 269 265 265 265 264 263 262 264 266
269 282 292 304 313 320 324 327 330 333 333 333 333 333 332 330 329 329 325 321 316 311 306 303 298 294 288 281 276 276 275 276 278 276 272 269 268 268 267 267 267 268 269
271 288 299 310 316 320 322 325 328 330 333 335 333 331 331 332 333 330 327 324 318 313 308 303 298 295 289 281 275 273 273 275 277 275 271 270 270 271 271 271 270 270 271
277 290 300 309 316 319 321 324 327 329 331 331 331 330 330 332 332 331 329 325 320 316 311 304 297 291 287 281 275 272 272 273 274 275 272 271 271 271 272 273 273 273 274
279 290 299 306 313 317 319 321 324 326 327 327 327 328 329 331 332 333 334 330 325 318 314 308 302 294 288 284 278 275 272 272 271 272 273 271 271 271 273 273 274 275 276
279 289 296 301 307 310 313 315 319 321 321 322 324 326 327 329 332 333 333 333 333 328 321 315 308 300 293 288 283 280 276 274 273 272 273 274 273 271 271 272 273 275 276
279 287 293 296 300 303 306 308 311 313 314 314 318 321 322 324 327 329 329 329 332 333 328 321 317 311 301 294 287 283 280 276 273 272 273 275 276 276 275 272 273 275 277
275 283 289 293 295 297 299 301 302 303 304 307 311 315 316 319 319 321 324 326 328 329 327 325 324 320 311 300 294 289 284 279 277 277 277 277 276 276 277 276 275 276 278
270 277 284 288 290 291 292 293 294 295 296 300 303 306 308 310 311 314 317 320 323 325 323 324 325 325 320 312 303 297 292 287 284 281 280 279 279 278 278 278 279 278 278
271 273 278 283 285 285 286 286 287 289 291 294 296 298 300 303 305 308 312 314 316 317 318 318 320 320 318 316 309 303 299 295 291 288 287 284 282 280 280 279 279 279 281
271 274 276 279 281 281 281 281 282 284 287 287 289 292 294 297 299 303 306 307 309 310 310 312 313 313 313 311 308 304 300 297 292 291 290 286 283 282 280 279 279 279 279
270 273 276 277 278 277 277 278 278 280 281 283 286 288 289 291 294 298 300 302 303 303 304 306 307 307 306 304 302 300 298 295 293 292 289 286 286 284 281 280 280 280 280
269 272 275 276 276 275 275 275 276 277 279 280 282 284 286 289 292 294 297 299 299 299 299 300 301 301 301 300 299 297 296 295 293 292 290 287 286 285 284 282 281 280 280
268 270 272 273 274 273 274 274 275 277 278 279 281 284 286 289 291 293 295 295 296 296 295 296 297 297 298 297 296 295 294 293 291 291 290 288 286 286 286 285 284 283 282
Height
5896 5895 5896 5897 5898 5899 5900 5900 5901 5901 5902 5902 5903 5903 5903 5903 5903 5903 5903 5903 5903 5903 5903 5903 5903 5903 5904 5904 5904 5904 5904 5904 5904 5905 5905 5905 5906 5906 5907 5907 5908 5909 5909
5894 5894 5895 5895 5896 5897 5898 5899 5899 5900 5900 5901 5901 5901 5902 5902 5902 5901 5902 5902 5902 5902 5902 5902 5902 5902 5903 5903 5903 5903 5903 5903 5903 5903 5903 5904 5904 5904 5905 5905 5906 5907 5907
5892 5893 5893 5894 5895 5896 5897 5897 5898 5898 5898 5899 5899 5900 5900 5900 5900 5900 5900 5900 5901 5901 5901 5901 5901 5901 5901 5901 5901 5901 5901 5901 5901 5901 5902 5902 5902 5902 5903 5903 5904 5904 5905
5891 5892 5892 5893 5894 5895 5895 5896 5896 5897 5897 5898 5898 5898 5899 5899 5899 5899 5899 5899 5899 5899 5899 5899 5899 5900 5900 5900 5900 5900 5899 5899 5900 5899 5900 5900 5899 5900 5900 5901 5901 5902 5902
5890 5891 5891 5892 5893 5893 5894 5894 5895 5895 5896 5897 5897 5898 5898 5898 5898 5898 5898 5898 5898 5898 5898 5898 5898 5898 5898 5898 5898 5898 5897 5898 5898 5897 5897 5896 5896 5898 5898 5898 5899 5899 5900
5890 5890 5891 5891 5892 5892 5893 5893 5894 5894 5895 5896 5896 5897 5897 5897 5897 5897 5897 5897 5897 5897 5896 5896 5896 5896 5896 5896 5896 5896 5895 5896 5896 5895 5895 5892 5893 5895 5895 5896 5896 5896 5897
5890 5890 5890 5891 5891 5891 5892 5893 5893 5894 5895 5895 5896 5896 5896 5896 5896 5896 5896 5896 5895 5895 5895 5894 5894 5894 5893 5893 5893 5893 5893 5893 5893 5892 5892 5891 5891 5892 5893 5893 5893 5894 5894
5889 5890 5891 5891 5891 5891 5892 5892 5893 5894 5894 5894 5894 5895 5894 5894 5894 5894 5894 5894 5894 5893 5893 5892 5891 5891 5891 5891 5891 5890 5890 5890 5890 5889 5889 5889 5889 5889 5890 5890 5891 5891 5892
5890 5890 5891 5891 5891 5892 5892 5893 5893 5893 5894 5894 5894 5893 5893 5893 5893 5893 5893 5892 5892 5891 5890 5889 5889 5888 5888 5888 5888 5887 5887 5886 5886 5886 5885 5885 5886 5886 5887 5887 5888 5888 5888
5890 5890 5891 5891 5892 5892 5893 5893 5893 5893 5893 5893 5893 5893 5893 5892 5892 5892 5891 5891 5890 5890 5889 5888 5887 5886 5886 5885 5885 5885 5884 5883 5882 5882 5883 5883 5883 5883 5884 5884 5884 5885 5885
5890 5890 5891 5892 5892 5892 5893 5893 5893 5893 5893 5892 5892 5892 5892 5892 5891 5891 5890 5890 5889 5888 5887 5886 5885 5885 5884 5883 5882 5882 5881 5879 5878 5880 5880 5879 5879 5880 5880 5881 5881 5882 5882
5890 5891 5891 5892 5892 5892 5892 5892 5892 5892 5892 5892 5891 5891 5891 5891 5891 5890 5890 5889 5888 5887 5886 5885 5883 5882 5881 5881 5880 5879 5878 5876 5875 5877 5877 5876 5876 5877 5877 5878 5878 5878 5879
5889 5890 5891 5891 5891 5892 5892 5892 5891 5891 5891 5891 5890 5890 5890 5890 5890 5889 5888 5887 5886 5885 5883 5882 5880 5879 5878 5878 5877 5876 5875 5872 5872 5874 5874 5874 5874 5874 5874 5875 5875 5875 5875
5888 5889 5890 5890 5891 5891 5891 5890 5890 5890 5890 5889 5889 5889 5888 5888 5888 5887 5886 5884 5883 5881 5879 5878 5876 5875 5875 5874 5873 5872 5872 5869 5869 5871 5870 5870 5870 5870 5871 5871 5870 5870 5870
5887 5888 5889 5889 5889 5889 5889 5889 5889 5889 5888 5888 5888 5886 5886 5885 5884 5883 5882 5880 5878 5876 5874 5872 5871 5870 5869 5868 5867 5867 5866 5865 5864 5866 5867 5866 5866 5866 5866 5866 5865 5865 5865
5886 5887 5887 5887 5887 5887 5887 5887 5886 5886 5886 5886 5885 5884 5882 5881 5880 5879 5877 5875 5872 5870 5868 5866 5864 5863 5862 5861 5860 5860 5861 5860 5859 5859 5861 5861 5860 5860 5860 5860 5859 5859 5859
5884 5885 5885 5885 5885 5885 5885 5884 5884 5883 5883 5883 5882 5881 5879 5878 5876 5875 5872 5870 5866 5864 5861 5859 5857 5855 5854 5854 5853 5854 5854 5854 5854 5853 5853 5854 5854 5854 5854 5853 5853 5852 5851
5881 5882 5882 5883 5883 5883 5882 5882 5881 5881 5880 5879 5878 5877 5875 5874 5872 5871 5868 5865 5862 5858 5855 5852 5850 5848 5847 5846 5846 5846 5846 5847 5847 5847 5846 5846 5846 5847 5847 5846 5845 5844 5844
5878 5879 5879 5879 5880 5880 5879 5879 5878 5878 5877 5876 5875 5874 5872 5870 5868 5867 5864 5861 5858 5854 5851 5848 5845 5842 5840 5839 5839 5839 5839 5839 5840 5840 5840 5839 5838 5838 5839 5839 5838 5836 5835
5874 5876 5876 5875 5876 5876 5875 5875 5874 5874 5873 5871 5871 5869 5867 5866 5864 5862 5859 5857 5853 5850 5846 5843 5840 5837 5835 5833 5833 5832 5832 5832 5832 5832 5832 5831 5831 5830 5829 5829 5829 5828 5827
5870 5872 5872 5871 5871 5871 5871 5870 5869 5868 5867 5866 5866 5864 5862 5860 5859 5857 5855 5852 5849 5846 5842 5839 5836 5833 5831 5829 5827 5826 5826 5825 5825 5825 5824 5824 5822 5821 5820 5819 5818 5817 5816
5865 5867 5868 5867 5866 5866 5866 5865 5864 5863 5862 5861 5860 5858 5856 5854 5853 5850 5849 5846 5844 5841 5838 5835 5832 5829 5826 5824 5822 5821 5820 5820 5818 5818 5816 5815 5814 5813 5811 5810 5808 5806 5804
5860 5861 5862 5861 5860 5860 5859 5858 5857 5856 5855 5854 5853 5851 5850 5848 5846 5844 5842 5840 5838 5835 5833 5830 5827 5824 5821 5819 5817 5816 5814 5813 5811 5810 5808 5806 5804 5803 5801 5798 5796 5793 5791
5854 5854 5854 5854 5854 5853 5852 5851 5850 5849 5848 5847 5845 5844 5842 5840 5838 5836 5835 5833 5831 5829 5826 5824 5821 5818 5816 5813 5811 5808 5806 5804 5803 5801 5799 5796 5794 5792 5789 5786 5783 5779 5775
5848 5847 5847 5846 5846 5845 5844 5843 5842 5841 5840 5838 5837 5836 5834 5832 5831 5828 5827 5826 5824 5822 5819 5816 5814 5811 5808 5805 5803 5800 5797 5794 5792 5790 5788 5785 5781 5778 5775 5771 5768 5764 5760
5840 5840 5839 5839 5838 5837 5836 5835 5834 5833 5831 5829 5828 5827 5826 5824 5822 5821 5819 5817 5815 5813 5810 5808 5805 5802 5799 5796 5793 5790 5787 5784 5780 5777 5775 5772 5768 5764 5759 5755 5750 5746 5742